| Date | Time | Temp. (oF) | Dew Point (oF) | Rel. Hum. (%) | Press. (in.) | Wind Dir. | Wind Speed (mph) | Hourly Rainfall (in.) |
|
|---|---|---|---|---|---|---|---|---|---|
| 1 | 11/20 | 00:00 | 49 | 49 | 100 | 29.61 | WNW | 5 | 0.00 |
| 2 | 11/19 | 23:00 | 50 | 50 | 100 | 29.60 | NW | 7 | 0.01 |
| 3 | 11/19 | 22:00 | 51 | 50 | 100 | 29.56 | W | 6 | 0.09 |
| 4 | 11/19 | 21:00 | 56 | 55 | 100 | 29.54 | WSW | 6 | 0.03 |
| 5 | 11/19 | 20:00 | 57 | 57 | 100 | 29.53 | SSW | 4 | 0.08 |
| 6 | 11/19 | 19:00 | 57 | 57 | 100 | 29.55 | S | 5 | 0.04 |
| 7 | 11/19 | 18:00 | 57 | 57 | 100 | 29.55 | SSE | 1 | 0.03 |
| 8 | 11/19 | 17:00 | 58 | 58 | 100 | 29.54 | SSW | 0 | 0.13 |
| 9 | 11/19 | 16:00 | 58 | 58 | 100 | 29.57 | S | 7 | 0.20 |
| 10 | 11/19 | 15:00 | 59 | 59 | 100 | 29.53 | SSW | 10 | 0.53 |
| 11 | 11/19 | 14:00 | 66 | 62 | 90 | 29.47 | SSE | 18 | 0.01 |
| 12 | 11/19 | 13:00 | 70 | 63 | 81 | 29.51 | S | 5 | 0.00 |
| 13 | 11/19 | 12:00 | 67 | 63 | 88 | 29.59 | SE | 10 | 0.00 |
| 14 | 11/19 | 11:00 | 66 | 64 | 94 | 29.68 | E | 10 | 0.00 |
| 15 | 11/19 | 10:00 | 66 | 64 | 95 | 29.73 | SE | 13 | 0.00 |
| 16 | 11/19 | 09:00 | 64 | 63 | 100 | 29.79 | SSE | 9 | 0.00 |
| 17 | 11/19 | 08:00 | 62 | 62 | 100 | 29.84 | SE | 9 | 0.00 |
| 18 | 11/19 | 07:00 | 61 | 60 | 100 | 29.88 | SSE | 8 | 0.00 |
| 19 | 11/19 | 06:00 | 60 | 59 | 100 | 29.90 | SE | 9 | 0.00 |
| 20 | 11/19 | 05:00 | 59 | 59 | 100 | 29.93 | SSE | 7 | 0.00 |
| 21 | 11/19 | 04:00 | 58 | 58 | 100 | 29.95 | S | 6 | 0.01 |
| 22 | 11/19 | 03:00 | 58 | 58 | 100 | 29.98 | ESE | 7 | 0.00 |
| 23 | 11/19 | 02:00 | 55 | 54 | 100 | 30.01 | ESE | 4 | 0.00 |
| 24 | 11/19 | 01:00 | 54 | 54 | 100 | 30.02 | ENE | 1 | 0.00 |